Location: Monrovia
(34.7865°N, 86.7139°W)
Time: 14:47:21
(UTC+00:00)

SPOT 3 Rocket - Pass Details

Date: 14 July 2020
Orbit: 778 x 795 km, 98.8° (Epoch: 12 August)

Event Time Altitude Azimuth Distance (km) Brightness Sun altitude
Exits shadow 01:51:52 - 153° (SSE) 2,477 5.6 -9.7°
Reaches altitude 10° 01:52:11 10° 153° (SSE) 2,351 5.5 -9.8°
Maximum altitude 01:57:18 61° 74° (ENE) 902 3.7 -10.6°
Drops below altitude 10° 02:02:27 10° 355° (N) 2,369 6.7 -11.5°
Sets 02:04:48 0° 352° (N) 3,303 7.5 -11.9°
